Printer-friendly version

IAU Minor Planet Center

Minor Planet Center

MPEC 2007-A30 : 2007 AM

The following Minor Planet Electronic Circular may be linked-to from your own Web pages, but must not otherwise be redistributed electronically.


Read MPEC 2007-A29 Read MPEC 2007-A31


M.P.E.C. 2007-A30                                Issued 2007 Jan.  9, 15:07 UT

     The Minor Planet Electronic Circulars contain information on unusual
         minor planets and routine data on comets.  They are published
   on behalf of Commission 20 of the International Astronomical Union by the
          Minor Planet Center, Smithsonian Astrophysical Observatory,
                          Cambridge, MA 02138, U.S.A.

             Prepared using the Tamkin Foundation Computer Network

                              MPC@CFA.HARVARD.EDU
          URL http://cfa-www.harvard.edu/iau/mpc.html  ISSN 1523-6714

                                    2007 AM

Observations:
     K07A00M* C2007 01 08.31492 05 23 55.41 +18 21 22.3          19.1 V EA030G96
     K07A00M  C2007 01 08.32831 05 23 49.99 +18 21 52.1          19.4 V EA030G96
     K07A00M  C2007 01 08.33491 05 23 47.37 +18 22 06.7          19.3 V EA030G96
     K07A00M  C2007 01 08.35598 05 23 38.88 +18 22 53.7          19.4 V EA030G96
     K07A00M  C2007 01 08.35652 05 23 38.67 +18 22 54.6          19.6 V EA030G96
     K07A00M  C2007 01 08.35705 05 23 38.44 +18 22 56.0          19.7 V EA030G96
     K07A00M  C2007 01 08.38931 05 23 25.54 +18 24 08.2          19.5 V EA030G96
     K07A00M  C2007 01 08.39118 05 23 24.77 +18 24 12.0                 EA030G96
     K07A00M  C2007 01 09.15966 05 18 31.88 +18 52 47.9          19.8 R EA030734
     K07A00M  C2007 01 09.16350 05 18 30.44 +18 52 57.1                 EA030734
     K07A00M  C2007 01 09.17223 05 18 26.91 +18 53 15.7          20.1 R EA030734
     K07A00M  C2007 01 09.27880 05 17 45.40 +18 57 11.8          20.2 R EA030854
     K07A00M  C2007 01 09.28359 05 17 43.67 +18 57 23.9          20.2 R EA030854
     K07A00M  C2007 01 09.28897 05 17 41.52 +18 57 36.0          20.3 R EA030854
     K07A00M  C2007 01 09.31182 05 17 32.49 +18 58 24.3          19.4 V EA030G96
     K07A00M  C2007 01 09.31733 05 17 30.37 +18 58 36.0          19.3 V EA030G96
     K07A00M  C2007 01 09.32304 05 17 28.10 +18 58 48.5          19.1 V EA030G96
     K07A00M  C2007 01 09.32869 05 17 25.90 +18 59 00.4          19.2 V EA030G96

Observer details:
734 Farpoint Observatory.  Observer G. Hug.  0.7-m reflector + CCD.
854 Sabino Canyon Observatory, Tucson.  Observer J. E. McGaha.  0.36-m f/10.0
    Schmidt-Cassegrain + CCD.
G96 Mt. Lemmon Survey.  Observer E. J. Christensen.  Measurers E. C. Beshore,
    E. J. Christensen, G. J. Garradd, A. R. Gibbs, A. D. Grauer, R. E. Hill,
    R. A. Kowalski, S. M. Larson, R. H. McNaught.  1.5-m reflector + CCD.

Orbital elements:
2007 AM                                                  Earth MOID = 0.0941 AU
Epoch 2007 Apr. 10.0 TT = JDT 2454200.5                 MPC
M 313.88286              (2000.0)            P               Q
n   1.37692069     Peri.  172.58884     +0.17519348     +0.96671023
a   0.8001967      Node   107.36301     -0.91302168     +0.23040012
e   0.4578524      Incl.   11.26772     -0.36837298     -0.11129744
P   0.72           H   21.8           G   0.15           U   9
Residuals in seconds of arc
070108 G96  0.1-  0.2+    070108 G96  0.0   0.6+    070109 854  0.9+  0.2+
070108 G96  0.2-  0.0     070108 G96  0.4-  0.2+    070109 854  0.5+  0.8+
070108 G96  0.4+  0.2-    070109 734  0.3-  0.3-    070109 G96  0.3-  0.1+
070108 G96  0.1+  0.1-    070109 734  0.8+  0.4+    070109 G96  0.3+  0.0
070108 G96  0.2+  0.4-    070109 734  0.4-  0.2-    070109 G96  0.2-  0.3+
070108 G96  0.0   0.2-    070109 854  1.3-  1.5-    070109 G96  0.0   0.1+

Ephemeris:
2007 AM                  a,e,i = 0.80, 0.46, 11                  q = 0.4338
Date    TT    R. A. (2000) Decl.     Delta      r     Elong.  Phase     V
2007 01 10    05 13.28   +19 23.2    0.204    1.164   149.5    25.4    19.8
2007 01 12    05 01.40   +20 30.3    0.211    1.162   144.9    29.1    20.0
2007 01 14    04 50.44   +21 31.0    0.218    1.160   140.5    32.6    20.2
2007 01 16    04 40.41   +22 25.9    0.226    1.158   136.3    35.9    20.4
2007 01 18    04 31.33   +23 15.5    0.235    1.155   132.3    39.1    20.5
2007 01 20    04 23.16   +24 00.4    0.244    1.152   128.5    42.0    20.7
2007 01 22    04 15.86   +24 41.3    0.253    1.148   124.9    44.7    20.8
2007 01 24    04 09.39   +25 18.8    0.263    1.144   121.5    47.2    21.0
2007 01 26    04 03.68   +25 53.3    0.273    1.140   118.3    49.5    21.1
2007 01 28    03 58.66   +26 25.3    0.283    1.135   115.2    51.7    21.2
2007 01 30    03 54.28   +26 55.3    0.293    1.129   112.3    53.8    21.4
2007 02 01    03 50.48   +27 23.6    0.303    1.124   109.6    55.7    21.5
2007 02 03    03 47.19   +27 50.4    0.313    1.118   106.9    57.5    21.6
2007 02 05    03 44.36   +28 16.0    0.323    1.111   104.4    59.2    21.7
2007 02 07    03 41.96   +28 40.5    0.333    1.104   101.9    60.9    21.8
2007 02 09    03 39.92   +29 04.2    0.343    1.097    99.6    62.5    21.9

Timothy B. Spahr             (C) Copyright 2007 MPC           M.P.E.C. 2007-A30

Read MPEC 2007-A29 Read MPEC 2007-A31


Our Web policy. Index to the CBAT/MPC/ICQ pages.


Valid HTML 4.01!